Погода в Павелке

Россия / Липецкая область     52°54′48″N   39°18′32″E
темп.,
°C
ветер,
м/с
пор.,
м/с
влажн.,
%
обл.,
%
осадки,
мм/ч
давл.,
гПа
погр.,
м
8 марта, пн
пн800:00−4з61580100 2.3 1001580
03:00−7зюз5128584 2.3 1002264
06:00−7зюз513905 0.0 1001280
09:00−6зюз6139141 0.0 1002496
12:00−4з8118656 0.1 10031158
15:00−4зсз698378 0.2 10051231
18:00−7зсз348795 0.1 100745
21:00−11сз228847 0.1 100921
9 марта, вт
вт900:00−13сз23900 0.0 101020
03:00−14сз23951 0.0 101122
06:00−12ссз369692 0.1 1012139
09:00−12с479495 0.1 1014268
12:00−11ссз468961 0.0 1015432
15:00−11ссз578872 0.0 1017554
18:00−14сз349295 0.0 101881
21:00−16сз349555 0.0 102159
10 марта, ср
ср1000:00−17ссз469484 0.0 1022103
03:00−20сз469642 0.0 102387
06:00−23сз47960 0.0 1025124
09:00−21ссз47940 0.0 1027258
12:00−18ссз469161 0.0 1028382
15:00−17ссз468962 0.0 1028432
18:00−20ссз339446 0.0 102936
21:00−23ссз339423 0.0 103127
11 марта, чт
чт1100:00−23с33930 0.0 103224
03:00−23ссз22920 0.0 103320
06:00−24сз22910 0.0 103420
09:00−20сз23906 0.0 1035102
12:00−15сз23810 0.0 1034313
15:00−13сз228010 0.0 1034420
18:00−17сз119146 0.0 103420
21:00−20зсз119623 0.0 103520
12 марта, пт
пт1200:00−21юз11950 0.0 103520
03:00−21ю22920 0.0 103420
06:00−21ююз23930 0.0 103520
09:00−17ю35930 0.0 1034166
12:00−11ю47850 0.0 1034480
15:00−9ю58780 0.0 1033728
18:00−12ююв34810 0.0 103257
21:00−13ююв5118547 0.0 1031214